Location: Pella
(41.4080°N, 92.9160°W)
Time: 18:52:03
(UTC-05:00)

ASTRO E2 - Visible Passes

Search period start: 28 March 2015 00:00
Search period end: 07 April 2015 00:00
Orbit: 526 x 534 km, 31.4° (Epoch: 27 March)

Date Brightness Start Highest point End Pass type
(mag) Time Alt. Az. Time Alt. Az. Time Alt. Az.
28 Mar 4.5 05:44:51 17° SSW 05:45:45 18° S 05:48:30 10° SE visible
29 Mar 4.6 05:32:27 17° S 05:32:29 17° S 05:35:05 10° SSE visible
30 Mar 4.8 05:20:06 14° S 05:20:06 14° S 05:21:36 10° SSE visible
31 Mar 5.2 05:07:50 10° SSE 05:07:50 10° SSE 05:08:00 10° SSE visible
